Creek Data

    Home     View Charts     View Raw Data     Messages

ID Distance Battery Voltage Battery Current Internal Temp Internal Humidity External Temp Solar Input rssi snr Time Stamp Record
36712 0.0 3.85 -5 50 43 51 0 -81 8 04/02/2025 09:15 PM 18570
36711 0.0 3.82 -5 51 43 52 0 -85 8 04/02/2025 09:01 PM 18569
36710 0.0 3.83 -5 51 44 52 0 -85 7 04/02/2025 08:45 PM 18568
36709 14.9 3.82 -5 52 44 53 0 -84 8 04/02/2025 08:30 PM 18567
36708 0.0 3.83 -5 53 45 54 0.1 -82 8 04/02/2025 08:15 PM 18566
36707 14.9 3.83 -5 54 46 55 0 -84 7 04/02/2025 08:00 PM 18565
36706 14.9 3.94 -5 56 47 55 0.9 -86 8 04/02/2025 07:45 PM 18564
36705 0.0 3.80 -10 58 48 56 3.2 -84 9 04/02/2025 07:30 PM 18563
36704 0.0 3.98 0 62 46 58 4.6 -82 8 04/02/2025 07:15 PM 18562
36703 0.0 3.89 -13 66 44 60 4.5 -83 7 04/02/2025 07:00 PM 18561
36702 0.0 3.93 0 69 43 62 5.1 -81 8 04/02/2025 06:45 PM 18560
36701 0.0 3.93 0 69 43 63 5.1 -81 8 04/02/2025 06:30 PM 18559
36700 15.0 3.93 0 71 42 62 5.1 -77 8 04/02/2025 06:15 PM 18558
36699 15.0 4.02 0 73 41 63 5.1 -78 6 04/02/2025 06:00 PM 18557
36698 0.0 3.93 0 74 41 63 5.1 -76 8 04/02/2025 05:45 PM 18556
36697 15.1 3.93 0 74 41 64 5.1 -78 8 04/02/2025 05:30 PM 18555
36696 0.0 3.93 0 74 40 64 5.1 -77 8 04/02/2025 05:15 PM 18554
36695 0.0 4.02 0 75 39 64 5.1 -76 8 04/02/2025 05:00 PM 18553
36694 0.0 3.93 0 75 39 64 5.1 -78 7 04/02/2025 04:45 PM 18552
36693 0.0 3.93 0 76 38 65 5.1 -78 8 04/02/2025 04:30 PM 18551
36692 0.0 4.12 0 74 38 65 5.1 -77 8 04/02/2025 04:15 PM 18550
36691 0.0 3.93 0 74 38 63 5.1 -77 8 04/02/2025 04:00 PM 18549
36690 0.0 3.93 0 74 37 62 5.1 -79 9 04/02/2025 03:45 PM 18548
36689 15.1 3.93 0 73 37 64 5.1 -79 8 04/02/2025 03:30 PM 18547
36688 15.0 3.93 0 71 38 62 5.1 -77 8 04/02/2025 03:15 PM 18546